Daytona Beach, FL

6:33 AM EST on January 16, 2017 (GMT -0500)
Daytona Beach International

Weather History for KDAB - February, 2014

Change the Weather History Date:

Tuesday, February 25, 2014

  Actual Average Record
Temperature  
Mean Temperature 69 °F 62 °F  
Max Temperature 78 °F 72 °F 86 °F (2001)
Min Temperature 59 °F 52 °F 29 °F (1989)
Degree Days  
Heating Degree Days 0 5  
Month to date heating degree days 97 151  
Since 1 July heating degree days 491 668  
Cooling Degree Days 4 2  
Month to date cooling degree days 59 27  
Year to date cooling degree days 84 56  
Growing Degree Days 17 (Base 50)    
Moisture  
Dew Point 59 °F    
Average Humidity 74    
Maximum Humidity 97    
Minimum Humidity 50    
Precipitation  
Precipitation 0.00 in 0.11 in 2.25 in (1941)
Month to date precipitation 3.41 2.45  
Year to date precipitation 6.18 5.19  
Sea Level Pressure  
Sea Level Pressure 30.01 in    
Wind  
Wind Speed 3 mph (WNW)    
Max Wind Speed 12 mph    
Max Gust Speed 13 mph    
Visibility 8 miles    
Events      
T = Trace of Precipitation, MM = Missing Value Source: NWS Daily Summary

Daily Weather History Graph

Daily Weather History Graph

Search for Another Location

Airport or City:

Trip Planner

Search our weather history database for the weather conditions in past years. The results will help you decide how hot, cold, wet, or windy it might be!

Date:

Astronomy

Feb. 25, 2014 Rise Set
Actual Time 6:53 AM EST 6:21 PM EST
Civil Twilight 6:29 AM EST 6:45 PM EST
Nautical Twilight 6:02 AM EST 7:12 PM EST
Astronomical Twilight 5:34 AM EST 7:40 PM EST
Moon 3:34 AM EST (2/25) 2:37 PM EST (2/25)
Length of Visible Light 12h 15m
Length of Day
11h 27m
Waning Crescent, 18% of the Moon is Illuminated
Feb 25
Waning Crescent
Mar 1
New
Mar 8
First Quarter
Mar 16
Full
Mar 23
Last Quarter

Hourly Weather History & Observations

Time (EST) Temp. Dew Point Humidity Pressure Visibility Wind Dir Wind Speed Gust Speed Precip Events Conditions
12:53 AM 60.1 °F 57.9 °F 93% 30.06 in 7.0 mi Calm Calm - N/A   Mostly Cloudy
1:53 AM 59.0 °F 57.9 °F 96% 30.04 in 5.0 mi Calm Calm - N/A   Mostly Cloudy
2:53 AM 60.1 °F 57.9 °F 93% 30.01 in 7.0 mi Calm Calm - N/A   Mostly Cloudy
3:53 AM 60.1 °F 57.9 °F 93% 30.03 in 7.0 mi WSW 3.5 mph - N/A   Overcast
4:53 AM 60.1 °F 57.9 °F 93% 30.01 in 7.0 mi Calm Calm - N/A   Overcast
5:53 AM 60.1 °F 57.9 °F 93% 30.04 in 8.0 mi WNW 4.6 mph - N/A   Overcast
6:53 AM 60.1 °F 57.9 °F 93% 30.05 in 8.0 mi WNW 4.6 mph - N/A   Mostly Cloudy
7:53 AM 61.0 °F 57.9 °F 90% 30.05 in 7.0 mi West 5.8 mph - N/A   Mostly Cloudy
8:53 AM 63.0 °F 59.0 °F 87% 30.07 in 8.0 mi NW 5.8 mph - N/A   Mostly Cloudy
9:53 AM 66.9 °F 61.0 °F 81% 30.08 in 10.0 mi NW 8.1 mph - N/A   Mostly Cloudy
10:53 AM 72.0 °F 61.0 °F 68% 30.07 in 10.0 mi NW 5.8 mph - N/A   Partly Cloudy
11:53 AM 75.0 °F 55.9 °F 51% 30.05 in 10.0 mi West 5.8 mph - N/A   Scattered Clouds
12:53 PM 75.0 °F 55.9 °F 51% 30.01 in 10.0 mi Calm Calm - N/A   Scattered Clouds
1:53 PM 75.0 °F 60.1 °F 60% 29.99 in 10.0 mi Calm Calm - N/A   Scattered Clouds
2:53 PM 75.9 °F 60.1 °F 58% 29.97 in 10.0 mi Variable 5.8 mph - N/A   Scattered Clouds
3:53 PM 75.9 °F 59.0 °F 56% 29.96 in 10.0 mi East 5.8 mph - N/A   Partly Cloudy
4:53 PM 73.9 °F 59.0 °F 59% 29.96 in 10.0 mi East 5.8 mph - N/A   Partly Cloudy
5:53 PM 70.0 °F 60.1 °F 71% 29.96 in 10.0 mi East 6.9 mph - N/A   Partly Cloudy
6:53 PM 68.0 °F 62.1 °F 81% 29.96 in 10.0 mi Calm Calm - N/A   Partly Cloudy
7:53 PM 64.0 °F 61.0 °F 90% 29.98 in 9.0 mi Calm Calm - N/A   Clear
8:53 PM 64.0 °F 61.0 °F 90% 29.98 in 10.0 mi Calm Calm - N/A   Clear
9:53 PM 62.1 °F 60.1 °F 93% 29.99 in 8.0 mi Calm Calm - N/A   Clear
10:53 PM 62.1 °F 60.1 °F 93% 29.99 in 5.0 mi SW 5.8 mph - N/A   Clear
11:53 PM 61.0 °F 60.1 °F 97% 29.97 in 6.0 mi SSW 3.5 mph - N/A   Clear